ZHONGXING-2D

Last updated on Thu Aug 13 2026 00:03:01 GMT+0000 (Coordinated Universal Time)

1 43920U 19001A 26224.63769414 -.00000355 00000+0 00000+0 0 9997 2 43920 0.0531 262.3930 0000754 23.9643 34.2646 1.00266924 54641
UTC large
Height (km)
Speed (km/s)
/
Latitude / Longitude
Inclination (degrees)
Orbital Period (minutes)
Azimuth
Elevation
Range (km)
Doppler Factor

Next 0 passes for location: London (51.5072 / 0.1276)

No passes found over London.
ZHONGXING-2D